• In Deutschland
  • Länderverzeichnis
  • Für 7 Tage
  • Wassertemperatur
  • Satellitenkarten
  • Wetterkarte
  • Widgets
  • user-avatar
    Anmelden

    Stündliche Wetter Rossoshino

    Heute, 24 September, Montag

    Zeit Temperatur Niederschläge Wind Luftdruck Luftfeuchtigkeit
    00:00 +4°C° 0 mm 0 m/S 700 mmHg 80%
    01:00 +3°C° 0 mm 0 m/S 700 mmHg 82%
    02:00 +3°C° 0 mm 0 m/S 700 mmHg 85%
    03:00 +3°C° 0 mm 0 m/S 700 mmHg 86%
    04:00 +2°C° 0 mm 0 m/S 700 mmHg 88%
    05:00 +2°C° 0 mm 0 m/S 700 mmHg 89%
    06:00 +3°C° 0 mm 0 m/S 700 mmHg 84%
    07:00 +5°C° 0 mm 0 m/S 700 mmHg 79%
    08:00 +6°C° 0 mm 0 m/S 701 mmHg 72%
    09:00 +9°C° 0 mm 1 m/S 700 mmHg 66%
    10:00 +11°C° 0 mm 1 m/S 700 mmHg 60%
    11:00 +14°C° 0 mm 1 m/S 700 mmHg 55%
    12:00 +14°C° 0 mm 1 m/S 700 mmHg 52%
    13:00 +15°C° 0 mm 1 m/S 699 mmHg 50%
    14:00 +15°C° 0 mm 2 m/S 699 mmHg 47%
    15:00 +15°C° 0 mm 1 m/S 699 mmHg 52%
    16:00 +14°C° 0 mm 1 m/S 699 mmHg 56%
    17:00 +13°C° 0 mm 1 m/S 698 mmHg 60%
    18:00 +12°C° 0 mm 1 m/S 698 mmHg 65%
    19:00 +10°C° 0 mm 1 m/S 698 mmHg 71%
    20:00 +8°C° 0 mm 1 m/S 698 mmHg 76%
    21:00 +7°C° 0 mm 1 m/S 699 mmHg 79%
    22:00 +7°C° 0 mm 1 m/S 699 mmHg 81%
    23:00 +6°C° 0 mm 1 m/S 699 mmHg 83%

    Morgen, 25 September, Dienstag

    Zeit Temperatur Niederschläge Wind Luftdruck Luftfeuchtigkeit
    00:00 +6°C° 0 mm 1 m/S 699 mmHg 85%
    01:00 +5°C° 0 mm 0 m/S 699 mmHg 86%
    02:00 +4°C° 0 mm 0 m/S 699 mmHg 87%
    03:00 +4°C° 0 mm 0 m/S 699 mmHg 87%
    04:00 +4°C° 0 mm 0 m/S 698 mmHg 88%
    05:00 +3°C° 0 mm 0 m/S 698 mmHg 88%
    06:00 +5°C° 0 mm 0 m/S 699 mmHg 84%
    07:00 +6°C° 0 mm 0 m/S 699 mmHg 79%
    08:00 +7°C° 0 mm 0 m/S 699 mmHg 75%
    09:00 +9°C° 0 mm 0 m/S 699 mmHg 67%
    10:00 +12°C° 0 mm 1 m/S 699 mmHg 59%
    11:00 +14°C° 0 mm 1 m/S 699 mmHg 50%
    12:00 +15°C° 0 mm 1 m/S 699 mmHg 48%
    13:00 +15°C° 0 mm 2 m/S 699 mmHg 46%
    14:00 +16°C° 0 mm 2 m/S 698 mmHg 44%
    15:00 +15°C° 0 mm 1 m/S 698 mmHg 48%
    16:00 +15°C° 0 mm 1 m/S 698 mmHg 52%
    17:00 +14°C° 0 mm 1 m/S 698 mmHg 57%
    18:00 +12°C° 0 mm 1 m/S 698 mmHg 62%
    19:00 +10°C° 0 mm 1 m/S 698 mmHg 68%
    20:00 +8°C° 0 mm 1 m/S 697 mmHg 74%
    21:00 +7°C° 0 mm 1 m/S 697 mmHg 78%
    22:00 +7°C° 0 mm 1 m/S 698 mmHg 81%
    23:00 +6°C° 0 mm 1 m/S 698 mmHg 84%

    übermorgen, 26 September, Mittwoch

    Zeit Temperatur Niederschläge Wind Luftdruck Luftfeuchtigkeit
    00:00 +6°C° 0 mm 1 m/S 697 mmHg 86%
    01:00 +4°C° 0 mm 0 m/S 697 mmHg 88%
    02:00 +4°C° 0 mm 0 m/S 697 mmHg 90%
    03:00 +4°C° 0 mm 0 m/S 697 mmHg 91%
    04:00 +3°C° 0 mm 0 m/S 697 mmHg 92%
    05:00 +3°C° 0 mm 0 m/S 697 mmHg 92%
    06:00 +4°C° 0 mm 0 m/S 697 mmHg 89%
    07:00 +6°C° 0 mm 0 m/S 697 mmHg 85%
    08:00 +7°C° 0 mm 0 m/S 698 mmHg 82%
    09:00 +10°C° 0 mm 1 m/S 697 mmHg 75%
    10:00 +12°C° 0 mm 1 m/S 697 mmHg 68%
    11:00 +14°C° 0 mm 1 m/S 697 mmHg 61%
    12:00 +15°C° 0 mm 2 m/S 696 mmHg 58%
    13:00 +15°C° 0 mm 2 m/S 696 mmHg 55%
    14:00 +16°C° 0 mm 2 m/S 695 mmHg 52%
    15:00 +16°C° 0 mm 2 m/S 695 mmHg 56%
    16:00 +15°C° 0 mm 1 m/S 695 mmHg 60%
    17:00 +15°C° 0 mm 1 m/S 695 mmHg 64%
    18:00 +13°C° 0 mm 1 m/S 694 mmHg 71%
    19:00 +11°C° 0 mm 1 m/S 694 mmHg 79%
    20:00 +9°C° 0 mm 1 m/S 694 mmHg 86%
    21:00 +8°C° 0 mm 1 m/S 694 mmHg 88%
    22:00 +8°C° 0 mm 1 m/S 694 mmHg 90%
    23:00 +8°C° 0 mm 1 m/S 694 mmHg 93%

    27 September, Donnerstag

    Zeit Temperatur Niederschläge Wind Luftdruck Luftfeuchtigkeit
    00:00 +7°C° 0 mm 1 m/S 694 mmHg 93%
    01:00 +7°C° 0 mm 1 m/S 694 mmHg 94%
    02:00 +7°C° 0 mm 1 m/S 694 mmHg 95%
    03:00 +7°C° 0.2 mm 1 m/S 693 mmHg 95%
    04:00 +7°C° 0.2 mm 1 m/S 693 mmHg 96%
    05:00 +7°C° 0.2 mm 1 m/S 693 mmHg 96%
    06:00 +7°C° 0.3 mm 1 m/S 694 mmHg 95%
    07:00 +8°C° 0.3 mm 1 m/S 694 mmHg 93%
    08:00 +8°C° 0.3 mm 1 m/S 694 mmHg 92%
    09:00 +8°C° 0.8 mm 2 m/S 693 mmHg 91%
    10:00 +8°C° 0.8 mm 2 m/S 693 mmHg 89%
    11:00 +9°C° 0.8 mm 2 m/S 693 mmHg 88%
    12:00 +10°C° 0.1 mm 2 m/S 693 mmHg 81%
    13:00 +12°C° 0.1 mm 2 m/S 693 mmHg 75%
    14:00 +13°C° 0.1 mm 3 m/S 693 mmHg 69%
    15:00 +13°C° 0.2 mm 2 m/S 693 mmHg 72%
    16:00 +13°C° 0.2 mm 2 m/S 694 mmHg 75%
    17:00 +12°C° 0.2 mm 1 m/S 694 mmHg 78%
    18:00 +11°C° 0.3 mm 1 m/S 694 mmHg 81%
    19:00 +11°C° 0.3 mm 1 m/S 694 mmHg 84%
    20:00 +9°C° 0.3 mm 2 m/S 695 mmHg 87%
    21:00 +9°C° 0.1 mm 2 m/S 695 mmHg 87%
    22:00 +8°C° 0.1 mm 2 m/S 695 mmHg 87%
    23:00 +8°C° 0.1 mm 2 m/S 695 mmHg 88%

    28 September, Freitag

    Zeit Temperatur Niederschläge Wind Luftdruck Luftfeuchtigkeit
    00:00 +8°C° 0 mm 3 m/S 695 mmHg 87%
    01:00 +8°C° 0 mm 3 m/S 695 mmHg 86%
    02:00 +8°C° 0 mm 3 m/S 695 mmHg 85%
    03:00 +7°C° 0 mm 4 m/S 695 mmHg 85%
    04:00 +6°C° 0 mm 4 m/S 696 mmHg 85%
    05:00 +6°C° 0 mm 4 m/S 696 mmHg 85%
    06:00 +6°C° 0 mm 4 m/S 696 mmHg 84%
    07:00 +7°C° 0 mm 4 m/S 696 mmHg 82%
    08:00 +7°C° 0 mm 5 m/S 697 mmHg 81%
    09:00 +8°C° 0 mm 5 m/S 697 mmHg 77%
    10:00 +9°C° 0 mm 6 m/S 697 mmHg 73%
    11:00 +10°C° 0 mm 6 m/S 698 mmHg 69%
    12:00 +11°C° 0 mm 6 m/S 698 mmHg 66%
    13:00 +11°C° 0 mm 6 m/S 698 mmHg 64%
    14:00 +13°C° 0 mm 6 m/S 698 mmHg 62%
    15:00 +12°C° 0.2 mm 5 m/S 698 mmHg 66%
    16:00 +12°C° 0.2 mm 5 m/S 698 mmHg 69%
    17:00 +11°C° 0.2 mm 4 m/S 698 mmHg 73%
    18:00 +11°C° 0.1 mm 4 m/S 699 mmHg 75%
    19:00 +10°C° 0.1 mm 4 m/S 699 mmHg 78%
    20:00 +10°C° 0.1 mm 4 m/S 700 mmHg 81%
    21:00 +8°C° 0.1 mm 4 m/S 700 mmHg 83%
    22:00 +9°C° 0.1 mm 3 m/S 700 mmHg 84%
    23:00 +9°C° 0.1 mm 3 m/S 700 mmHg 86%

    29 September, Samstag

    Zeit Temperatur Niederschläge Wind Luftdruck Luftfeuchtigkeit
    00:00 +9°C° 0.1 mm 3 m/S 700 mmHg 87%
    01:00 +8°C° 0.1 mm 3 m/S 701 mmHg 87%
    02:00 +8°C° 0.1 mm 3 m/S 701 mmHg 88%
    03:00 +8°C° 0.2 mm 3 m/S 701 mmHg 88%
    04:00 +8°C° 0.2 mm 2 m/S 701 mmHg 89%
    05:00 +8°C° 0.2 mm 2 m/S 701 mmHg 89%
    06:00 +8°C° 0.1 mm 2 m/S 702 mmHg 88%
    07:00 +8°C° 0.1 mm 2 m/S 702 mmHg 87%
    08:00 +8°C° 0.1 mm 2 m/S 702 mmHg 86%
    09:00 +9°C° 0.1 mm 2 m/S 702 mmHg 81%
    10:00 +12°C° 0.1 mm 2 m/S 702 mmHg 77%
    11:00 +13°C° 0.1 mm 2 m/S 702 mmHg 72%
    12:00 +14°C° 0 mm 2 m/S 702 mmHg 67%
    13:00 +15°C° 0 mm 2 m/S 702 mmHg 63%
    14:00 +16°C° 0 mm 1 m/S 701 mmHg 59%
    15:00 +15°C° 0 mm 1 m/S 701 mmHg 61%
    16:00 +15°C° 0 mm 1 m/S 701 mmHg 64%
    17:00 +13°C° 0 mm 0 m/S 701 mmHg 66%
    18:00 +11°C° 0 mm 0 m/S 701 mmHg 71%
    19:00 +11°C° 0 mm 1 m/S 701 mmHg 76%
    20:00 +9°C° 0 mm 1 m/S 700 mmHg 81%
    21:00 +8°C° 0 mm 1 m/S 700 mmHg 82%
    22:00 +8°C° 0 mm 1 m/S 700 mmHg 84%
    23:00 +7°C° 0 mm 1 m/S 700 mmHg 85%
    Mehr zeigen